Location: Dampvalley
(47.9094°N, 6.1967°E)
Time: 13:53:58
(UTC+00:00)

Meteor 2-17 Rocket - Pass Details

Date: 05 March 2021
Orbit: 935 x 956 km, 82.5° (Epoch: 14 April)

Event Time Altitude Azimuth Distance (km) Brightness Sun altitude
Rises 04:32:56 0° 347° (NNW) 3,607 7.5 -16.8°
Reaches altitude 10° 04:35:27 10° 344° (NNW) 2,657 6.7 -16.3°
Maximum altitude 04:41:24 61° 266° (W) 1,057 4.4 -15.3°
Drops below altitude 10° 04:47:19 10° 188° (S) 2,641 6.6 -14.4°
Sets 04:49:49 0° 185° (S) 3,582 7.3 -13.9°
